Change the Weather History Date:

Monday, October 17, 2011

  Actual Average Record
Temperature  
Mean Temperature 80 °F -  
Max Temperature 91 °F 86 °F 100 °F (2003)
Min Temperature 68 °F 63 °F 53 °F (1998)
Cooling Degree Days 14    
Growing Degree Days 30 (Base 50)    
Moisture  
Dew Point 61 °F    
Average Humidity 57    
Maximum Humidity 78    
Minimum Humidity 28    
Precipitation  
Precipitation 0.00 in - - ()
Sea Level Pressure  
Sea Level Pressure 29.93 in    
Wind  
Wind Speed 10 mph ()    
Max Wind Speed 15 mph    
Max Gust Speed -    
Visibility 6.1 miles    
Events      
Averages and records for this station are not official NWS values.
T = Trace of Precipitation, MM = Missing Value Source: Averaged Metar Reports

Daily Weather History Graph

Daily Weather History Graph

Search for Another Location

Airport or City:

Trip Planner

Search our weather history database for the weather conditions in past years. The results will help you decide how hot, cold, wet, or windy it might be!

Date:

Astronomy

Oct. 17, 2011 Rise Set
Actual Time 5:37 AM CAT 6:13 PM CAT
Civil Twilight 5:15 AM CAT 6:36 PM CAT
Nautical Twilight 4:48 AM CAT 7:02 PM CAT
Astronomical Twilight 4:21 AM CAT 7:29 PM CAT
Moon 10:52 PM CAT (10/17) 9:09 AM CAT (10/17)
Length of Visible Light 13h 21m
Length of Day
12h 35m
Waning Gibbous, 76% of the Moon is Illuminated
Oct 17
Waning Gibbous
Oct 20
Last Quarter
Oct 26
New
Nov 2
First Quarter
Nov 10
Full

Hourly Weather History & Observations

Time (CAT) Temp. Heat Index Dew Point Humidity Pressure Visibility Wind Dir Wind Speed Gust Speed Precip Events Conditions
12:00 AM 78.8 °F - 51.8 °F 39% 29.95 in - SE 4.6 mph - N/A   Clear
1:00 AM 75.2 °F - 55.4 °F 50% 29.95 in - SE 10.4 mph - N/A   Clear
2:00 AM 73 °F - 60 °F 54%  in 6 mi ESE 13.8 mph - -  
2:00 AM 73.4 °F - 60.8 °F 65% 29.95 in - ESE 13.8 mph - N/A   Clear
3:00 AM 71.6 °F - 59.0 °F 64% 29.92 in - ESE 13.8 mph - N/A   Clear
4:00 AM 69.8 °F - 59.0 °F 68% 29.95 in - ESE 9.2 mph - N/A   Clear
5:00 AM 68.0 °F - 60.8 °F 78% 29.95 in - ESE 10.4 mph - N/A   Clear
6:00 AM 68.0 °F - 60.8 °F 78% 29.95 in - ESE 9.2 mph - N/A   Clear
7:00 AM 69.8 °F - 62.6 °F 78% 29.98 in 6.2 mi ESE 13.8 mph - N/A   Partly Cloudy
8:00 AM 71.6 °F - 62.6 °F 73% 30.01 in 6.2 mi ESE 15.0 mph - N/A   Scattered Clouds
10:00 AM 78.8 °F - 62.6 °F 57% 29.98 in - ESE 12.7 mph - N/A   Clear
11:00 AM 84.2 °F 85.0 °F 62.6 °F 48% 29.95 in - East 10.4 mph - N/A   Clear
12:00 PM 86.0 °F 86.1 °F 60.8 °F 43% 29.92 in - ESE 11.5 mph - N/A   Clear
1:00 PM 89.6 °F 89.5 °F 60.8 °F 38% 29.92 in - ESE 10.4 mph - N/A   Clear
2:00 PM 90 °F - 61 °F 28%  in 6 mi SE 10.4 mph - -   Haze
2:00 PM 91.4 °F 91.4 °F 60.8 °F 36% 29.89 in - SE 10.4 mph - N/A   Clear
3:00 PM 91.4 °F 92.1 °F 62.6 °F 38% 29.86 in - ESE 12.7 mph - N/A   Clear
4:00 PM 87.8 °F 89.4 °F 64.4 °F 46% 29.86 in - ESE 13.8 mph - N/A   Clear
5:00 PM 84.2 °F 85.6 °F 64.4 °F 51% 29.86 in - ESE 13.8 mph - N/A   Clear
6:00 PM 80.6 °F 81.8 °F 62.6 °F 54% 29.89 in - ESE 15.0 mph - N/A   Clear
7:00 PM 75.2 °F - 62.6 °F 65% 29.86 in - ESE 12.7 mph - N/A   Clear
8:00 PM 73.4 °F - 60.8 °F 65% 29.95 in - ESE 11.5 mph - N/A   Clear
9:00 PM 71.6 °F - 60.8 °F 69% 29.95 in - ESE 11.5 mph - N/A   Clear
10:00 PM 69.8 °F - 60.8 °F 73% 29.98 in - ESE 11.5 mph - N/A   Clear
11:00 PM 69.8 °F - 60.8 °F 73% 29.98 in - East 10.4 mph - N/A   Clear